This is the latest recevied weather packets stored in our database for station/object DJ4RO-13. If no packets are shown the sender has not sent any weather packets the latest 1 day(s).
| Time | Temp. | Humidity | Pressure | Rain* | Wind** | Luminosity | Snow |
|---|---|---|---|---|---|---|---|
| 1777973402 | 15.56° C | 83% | 1007.1 hPa | 0 mm | 0 m/s | - | - |
| 1777972802 | 15.56° C | 82% | 1006.9 hPa | 0 mm | 0.45 m/s, 230° | - | - |
| 1777972202 | 15.56° C | 82% | 1006.9 hPa | 0 mm | 0.45 m/s, 343° | - | - |
| 1777971602 | 15.56° C | 83% | 1006.8 hPa | 0 mm | 0.45 m/s, 29° | - | - |
| 1777971002 | 15.56° C | 84% | 1006.8 hPa | 0 mm | 0 m/s | - | - |
| 1777970402 | 15° C | 86% | 1006.7 hPa | 0 mm | 0.45 m/s, 335° | - | - |
| 1777969802 | 15° C | 87% | 1006.9 hPa | 0 mm | 0 m/s | - | - |
| 1777969202 | 15° C | 88% | 1006.9 hPa | 0 mm | 0 m/s | - | - |
| 1777968602 | 14.44° C | 89% | 1007 hPa | 0 mm | 0.45 m/s, 292° | - | - |
| 1777968002 | 14.44° C | 90% | 1007 hPa | 0 mm | 0 m/s | - | - |
| 1777967402 | 14.44° C | 92% | 1007.1 hPa | 0 mm | 0 m/s | - | - |
| 1777966802 | 13.89° C | 91% | 1007.1 hPa | 0 mm | 0 m/s | - | - |
| 1777966202 | 13.89° C | 92% | 1007.1 hPa | 0 mm | 0 m/s | - | - |
| 1777965602 | 13.89° C | 93% | 1007 hPa | 0 mm | 0.45 m/s, 340° | - | - |
| 1777965002 | 13.89° C | 95% | 1007.1 hPa | 0 mm | 0.45 m/s, 150° | - | - |
| 1777964402 | 13.33° C | 96% | 1007 hPa | 0 mm | 0 m/s | - | - |
| 1777963802 | 13.33° C | 97% | 1007 hPa | 0 mm | 0 m/s | - | - |
| 1777963202 | 13.33° C | 98% | 1007 hPa | 0 mm | 0.45 m/s, 317° | - | - |
| 1777962602 | 12.78° C | 98% | 1006.9 hPa | 0 mm | 0 m/s | - | - |
| 1777962002 | 12.78° C | 98% | 1007.2 hPa | 0 mm | 0.45 m/s, 30° | - | - |
| 1777961402 | 12.78° C | 99% | 1007.2 hPa | 0 mm | 0 m/s | - | - |
| 1777960802 | 12.78° C | 99% | 1007.4 hPa | 0 mm | 0 m/s | - | - |
| 1777960202 | 12.78° C | 99% | 1007.2 hPa | 0 mm | 0 m/s | - | - |
| 1777959602 | 12.22° C | 99% | 1007.3 hPa | 0 mm | 0 m/s | - | - |
| 1777959002 | 12.22° C | 99% | 1007.4 hPa | 0 mm | 0 m/s | - | - |
* Rain latest hour (hover to see other rain measurements)
** Current wind speed in m/s (hover to see current wind gust speed)